sat.trackr.live / text

‹ back to catalog

STARLINK-6041

NORAD 56478 · 2023-064AG

PAYLOAD ACTIVE UNKNOWN

§ Identity

Operator
Country
US
Launch date
2023-05-10
Launch site
AFWTR
Launch vehicle
Mass (kg)
RCS (m²)

Purposes: comms

External: N2YO · Heavens-Above · Gunter

§ Orbital elements

Epoch: 2026-09-20T22:00:03.000096Z

Period
95.59 min
Inclination
70.0000°
Eccentricity
0.0003924
Mean motion
15.06396357 rev/d
Perigee alt
544.5 km
Apogee alt
549.9 km
Semi-major
6,925.4 km
B*
3.2217e-4
RAAN
352.0896°
Arg perigee
305.8115°
Mean anomaly
129.4006°
Rev number
576

§ Raw data

STARLINK-60411 56478U 23064AG  26263.91670139  .00004659  00000+0  32217-3 0  99912 56478  70.0000 352.0896 0003924 305.8115 129.4006 15.06396357  5768

JSON: /api/v1/satellites/56478 · /tle

For live sub-satellite position, see the globe view (requires WebGL).

§ Visibility from observer

Set your observer location to see the next 7 days of passes ≥ 10°. The values pass through the URL so the page stays shareable.

No JS? Fill the form by hand. The geolocation button needs JavaScript.